Previsão horária em Barlad

Hoje, 29 Julho, Quinta-feira

Tempo Temperatura Precipitação Vento Pressão Humidade
00:00 +24°C° 0 mm 1 m/s 748 mmHg 74%
01:00 +24°C° 0 mm 1 m/s 748 mmHg 74%
02:00 +23°C° 0 mm 1 m/s 748 mmHg 74%
03:00 +21°C° 0 mm 0 m/s 748 mmHg 73%
04:00 +21°C° 0 mm 0 m/s 748 mmHg 73%
05:00 +21°C° 0 mm 0 m/s 747 mmHg 73%
06:00 +25°C° 0 mm 1 m/s 748 mmHg 66%
07:00 +27°C° 0 mm 1 m/s 748 mmHg 60%
08:00 +28°C° 0 mm 1 m/s 748 mmHg 53%
09:00 +31°C° 0 mm 1 m/s 747 mmHg 47%
10:00 +33°C° 0 mm 1 m/s 747 mmHg 40%
11:00 +36°C° 0 mm 2 m/s 747 mmHg 34%
12:00 +37°C° 0 mm 2 m/s 747 mmHg 30%
13:00 +39°C° 0 mm 2 m/s 746 mmHg 26%
14:00 +40°C° 0 mm 2 m/s 746 mmHg 22%
15:00 +38°C° 0 mm 4 m/s 746 mmHg 26%
16:00 +36°C° 0 mm 6 m/s 745 mmHg 30%
17:00 +34°C° 0 mm 8 m/s 745 mmHg 34%
18:00 +32°C° 0.1 mm 6 m/s 745 mmHg 41%
19:00 +29°C° 0.1 mm 5 m/s 746 mmHg 48%
20:00 +26°C° 0.1 mm 3 m/s 746 mmHg 55%
21:00 +25°C° 0 mm 3 m/s 746 mmHg 62%
22:00 +24°C° 0 mm 3 m/s 747 mmHg 68%
23:00 +22°C° 0 mm 3 m/s 747 mmHg 75%

Amanhã, 30 Julho, Sexta-feira

Tempo Temperatura Precipitação Vento Pressão Humidade
00:00 +22°C° 0 mm 3 m/s 747 mmHg 77%
01:00 +21°C° 0 mm 3 m/s 747 mmHg 79%
02:00 +21°C° 0 mm 3 m/s 747 mmHg 81%
03:00 +21°C° 0 mm 3 m/s 748 mmHg 83%
04:00 +21°C° 0 mm 3 m/s 748 mmHg 84%
05:00 +20°C° 0 mm 2 m/s 748 mmHg 85%
06:00 +22°C° 0 mm 3 m/s 748 mmHg 78%
07:00 +25°C° 0 mm 3 m/s 748 mmHg 71%
08:00 +27°C° 0 mm 4 m/s 748 mmHg 64%
09:00 +28°C° 0 mm 4 m/s 748 mmHg 58%
10:00 +30°C° 0 mm 3 m/s 748 mmHg 52%
11:00 +31°C° 0 mm 3 m/s 748 mmHg 45%
12:00 +33°C° 0 mm 3 m/s 748 mmHg 42%
13:00 +34°C° 0 mm 3 m/s 747 mmHg 38%
14:00 +35°C° 0 mm 3 m/s 747 mmHg 35%
15:00 +34°C° 0 mm 3 m/s 747 mmHg 35%
16:00 +34°C° 0 mm 3 m/s 746 mmHg 36%
17:00 +34°C° 0 mm 4 m/s 746 mmHg 36%
18:00 +31°C° 0 mm 3 m/s 746 mmHg 41%
19:00 +29°C° 0 mm 3 m/s 746 mmHg 46%
20:00 +28°C° 0 mm 2 m/s 747 mmHg 50%
21:00 +27°C° 0.1 mm 2 m/s 747 mmHg 54%
22:00 +26°C° 0.1 mm 1 m/s 747 mmHg 57%
23:00 +25°C° 0.1 mm 1 m/s 747 mmHg 61%

Depois de amanhã, 31 Julho, Sábado

Tempo Temperatura Precipitação Vento Pressão Humidade
00:00 +24°C° 0 mm 1 m/s 747 mmHg 63%
01:00 +22°C° 0 mm 0 m/s 747 mmHg 65%
02:00 +21°C° 0 mm 0 m/s 747 mmHg 67%
03:00 +21°C° 0 mm 0 m/s 747 mmHg 68%
04:00 +21°C° 0 mm 0 m/s 747 mmHg 69%
05:00 +20°C° 0 mm 0 m/s 747 mmHg 70%
06:00 +24°C° 0 mm 1 m/s 747 mmHg 64%
07:00 +26°C° 0 mm 1 m/s 747 mmHg 58%
08:00 +28°C° 0 mm 2 m/s 747 mmHg 52%
09:00 +30°C° 0 mm 2 m/s 747 mmHg 47%
10:00 +33°C° 0 mm 3 m/s 747 mmHg 43%
11:00 +34°C° 0 mm 3 m/s 747 mmHg 38%
12:00 +35°C° 0 mm 3 m/s 746 mmHg 36%
13:00 +36°C° 0 mm 3 m/s 746 mmHg 35%
14:00 +37°C° 0 mm 4 m/s 746 mmHg 33%
15:00 +37°C° 0 mm 4 m/s 745 mmHg 34%
16:00 +36°C° 0 mm 5 m/s 745 mmHg 35%
17:00 +36°C° 0 mm 5 m/s 745 mmHg 36%
18:00 +33°C° 0.4 mm 4 m/s 745 mmHg 47%
19:00 +29°C° 0.4 mm 3 m/s 746 mmHg 58%
20:00 +25°C° 0.4 mm 2 m/s 746 mmHg 69%
21:00 +25°C° 0.1 mm 2 m/s 746 mmHg 71%
22:00 +24°C° 0.1 mm 2 m/s 746 mmHg 73%
23:00 +24°C° 0.1 mm 2 m/s 747 mmHg 75%

1 Agosto, Domingo

Tempo Temperatura Precipitação Vento Pressão Humidade
00:00 +24°C° 0 mm 2 m/s 746 mmHg 76%
01:00 +23°C° 0 mm 2 m/s 746 mmHg 77%
02:00 +23°C° 0 mm 2 m/s 746 mmHg 78%
03:00 +23°C° 0 mm 2 m/s 746 mmHg 80%
04:00 +22°C° 0 mm 1 m/s 746 mmHg 81%
05:00 +22°C° 0 mm 1 m/s 746 mmHg 83%
06:00 +24°C° 0 mm 1 m/s 746 mmHg 76%
07:00 +25°C° 0 mm 1 m/s 746 mmHg 69%
08:00 +27°C° 0 mm 1 m/s 747 mmHg 62%
09:00 +29°C° 0 mm 2 m/s 747 mmHg 55%
10:00 +31°C° 0 mm 2 m/s 747 mmHg 48%
11:00 +34°C° 0 mm 2 m/s 747 mmHg 42%
12:00 +35°C° 0 mm 2 m/s 746 mmHg 38%
13:00 +36°C° 0 mm 2 m/s 746 mmHg 35%
14:00 +37°C° 0 mm 3 m/s 746 mmHg 32%
15:00 +37°C° 0 mm 3 m/s 745 mmHg 31%
16:00 +37°C° 0 mm 4 m/s 745 mmHg 31%
17:00 +39°C° 0 mm 5 m/s 745 mmHg 30%
18:00 +35°C° 0 mm 5 m/s 745 mmHg 35%
19:00 +33°C° 0 mm 4 m/s 745 mmHg 41%
20:00 +30°C° 0 mm 4 m/s 744 mmHg 46%
21:00 +29°C° 0 mm 4 m/s 745 mmHg 50%
22:00 +28°C° 0 mm 4 m/s 745 mmHg 53%
23:00 +26°C° 0 mm 4 m/s 745 mmHg 57%

2 Agosto, Segunda-feira

Tempo Temperatura Precipitação Vento Pressão Humidade
00:00 +26°C° 0 mm 4 m/s 745 mmHg 59%
01:00 +25°C° 0 mm 3 m/s 745 mmHg 61%
02:00 +24°C° 0 mm 2 m/s 745 mmHg 63%
03:00 +24°C° 0 mm 1 m/s 745 mmHg 67%
04:00 +23°C° 0 mm 1 m/s 745 mmHg 71%
05:00 +22°C° 0 mm 1 m/s 744 mmHg 74%
06:00 +24°C° 0 mm 2 m/s 744 mmHg 71%
07:00 +25°C° 0 mm 2 m/s 744 mmHg 67%
08:00 +26°C° 0 mm 3 m/s 744 mmHg 64%
09:00 +29°C° 0 mm 4 m/s 744 mmHg 54%
10:00 +33°C° 0 mm 6 m/s 743 mmHg 44%
11:00 +36°C° 0 mm 7 m/s 743 mmHg 35%
12:00 +38°C° 0 mm 6 m/s 743 mmHg 32%
13:00 +40°C° 0 mm 6 m/s 742 mmHg 29%
14:00 +41°C° 0 mm 5 m/s 742 mmHg 26%
15:00 +40°C° 0 mm 6 m/s 742 mmHg 30%
16:00 +38°C° 0 mm 7 m/s 742 mmHg 33%
17:00 +37°C° 0 mm 8 m/s 742 mmHg 37%
18:00 +32°C° 0.3 mm 7 m/s 743 mmHg 53%
19:00 +27°C° 0.3 mm 6 m/s 744 mmHg 69%
20:00 +22°C° 0.3 mm 6 m/s 746 mmHg 85%
21:00 +21°C° 0 mm 5 m/s 746 mmHg 86%
22:00 +21°C° 0 mm 5 m/s 747 mmHg 88%
23:00 +21°C° 0 mm 4 m/s 748 mmHg 90%

3 Agosto, Terça-feira

Tempo Temperatura Precipitação Vento Pressão Humidade
00:00 +20°C° 0 mm 4 m/s 748 mmHg 89%
01:00 +19°C° 0 mm 5 m/s 748 mmHg 89%
02:00 +19°C° 0 mm 5 m/s 748 mmHg 88%
03:00 +18°C° 0 mm 4 m/s 748 mmHg 87%
04:00 +18°C° 0 mm 4 m/s 749 mmHg 86%
05:00 +17°C° 0 mm 3 m/s 749 mmHg 85%
06:00 +19°C° 0 mm 3 m/s 749 mmHg 79%
07:00 +20°C° 0 mm 4 m/s 749 mmHg 72%
08:00 +21°C° 0 mm 4 m/s 750 mmHg 65%
09:00 +23°C° 0 mm 4 m/s 750 mmHg 60%
10:00 +26°C° 0 mm 3 m/s 750 mmHg 54%
11:00 +27°C° 0 mm 3 m/s 750 mmHg 48%
12:00 +28°C° 0 mm 3 m/s 749 mmHg 46%
13:00 +29°C° 0 mm 2 m/s 749 mmHg 43%
14:00 +30°C° 0 mm 2 m/s 749 mmHg 40%
15:00 +30°C° 0 mm 3 m/s 748 mmHg 40%
16:00 +31°C° 0 mm 3 m/s 748 mmHg 39%
17:00 +31°C° 0 mm 3 m/s 748 mmHg 39%
18:00 +28°C° 1 mm 3 m/s 748 mmHg 53%
19:00 +25°C° 1 mm 3 m/s 748 mmHg 67%
20:00 +22°C° 1 mm 3 m/s 748 mmHg 80%
21:00 +21°C° 0.6 mm 2 m/s 748 mmHg 82%
22:00 +20°C° 0.6 mm 2 m/s 749 mmHg 84%
23:00 +21°C° 0.6 mm 1 m/s 749 mmHg 86%
Mostrar mais